パンスターズ彗星

P/2016 A3 ( PanSTARRS )

English version
Home page
Updated on May 20, 2019

---------------------------------------------------------------------

・ プロフィール

発見日 2016年1月4日
発見光度 20.5等
発見者 Pan-STARRS 1 telescope (Haleakala)

・ 写真集

・ 軌道要素

Epoch 2017 Mar. 28.0 TT = JDT 2457840.5
T 2017 Apr. 13.59578 TT                                 MPCW
q   4.7894955            (2000.0)            P               Q
n   0.04592708     Peri.  338.47195     -0.97085121     -0.23882467
a   7.7224808      Node   187.79443     +0.23588454     -0.93705068
e   0.3797983      Incl.    8.59396     +0.04250187     -0.25475244
P  21.46
From 133 observations 2016 Jan. 4-2019 May 3, mean residual 0".4.

・ 光度変化

        m1 = 2.0 + 5 logΔ + 20.0 log r

---------------------------------------------------------------------

軌道要素はM.P.E.C. 2019-J142に掲載されたものです。
光度グラフはComet for Windowsで作成したものです。

---------------------------------------------------------------------

Copyright(C) Seiichi Yoshida (comet@aerith.net). All rights reserved.